AKDT,Max TemperatureF,Mean TemperatureF,Min TemperatureF,Max Dew PointF,MeanDew PointF,Min DewpointF,Max Humidity, Mean Humidity, Min Humidity, Max Sea Level PressureIn, Mean Sea Level PressureIn, Min Sea Level PressureIn, Max VisibilityMiles, Mean VisibilityMiles, Min VisibilityMiles, Max Wind SpeedMPH, Mean Wind SpeedMPH, Max Gust SpeedMPH,PrecipitationIn, CloudCover, Events, WindDirDegrees
2013-4-1,39,36,33,36,34,32,100,95,87,30.05,29.92,29.83,10,6,1,13,2,23,0.00,8,,184
2013-4-2,42,38,33,37,35,32,100,90,70,30.29,30.18,30.01,10,10,5,10,5,,0.00,7,,155
2013-4-3,42,35,28,36,32,27,100,87,57,30.29,30.22,30.12,10,10,10,8,2,,0.00,5,,333
2013-4-4,42,32,23,28,15,5,100,52,24,30.12,29.94,29.74,10,10,10,17,5,25,0.00,0,,347
2013-4-5,39,32,24,21,11,5,64,40,26,29.73,29.62,29.55,10,10,10,10,5,,0.00,1,,321
2013-4-6,39,34,28,34,30,21,100,86,64,29.70,29.56,29.49,10,9,2,7,2,,0.00,7,,328
2013-4-7,51,40,28,36,33,27,93,71,47,29.94,29.87,29.71,10,10,10,14,6,,0.00,4,,172
2013-4-8,44,36,28,37,34,28,100,81,66,29.94,29.76,29.51,10,10,9,26,7,34,0.00,7,,130
2013-4-9,44,38,33,39,35,27,93,81,70,29.76,29.38,29.02,10,10,5,30,14,41,0.00,8,,160
2013-4-10,35,32,30,30,29,25,100,87,65,30.06,29.91,29.76,10,6,0,17,7,38,0.00,7,,182
2013-4-11,37,32,28,30,29,27,100,83,65,30.15,30.05,29.79,10,9,1,14,7,16,0.00,6,,125
2013-4-12,44,38,33,30,21,16,87,51,31,29.86,29.70,29.61,10,10,10,17,9,26,0.00,3,,344
2013-4-13,46,37,28,23,21,18,74,51,32,30.13,30.01,29.86,10,10,10,17,9,22,0.00,0,,323
2013-4-14,48,37,26,27,21,19,86,53,32,30.32,30.23,30.14,10,10,10,18,7,21,0.00,0,,326
2013-4-15,44,32,21,28,25,19,100,66,42,30.42,30.38,30.33,10,10,10,13,3,17,0.00,3,,243
2013-4-16,39,36,33,36,32,28,93,84,70,30.42,30.24,29.95,10,10,4,20,5,25,0.00,7,,123
2013-4-17,46,42,39,39,35,32,87,79,62,30.11,30.00,29.87,10,10,10,17,12,25,0.00,6,,197
2013-4-18,42,35,28,34,31,27,100,81,53,30.12,30.01,29.93,10,10,10,13,4,17,0.00,6,,207
2013-4-19,44,32,21,27,16,9,100,52,25,30.33,30.17,30.00,10,10,10,15,4,20,0.00,0,,348
2013-4-20,46,36,26,23,16,12,75,44,29,30.46,30.42,30.34,10,10,10,14,6,20,0.00,0,,323
2013-4-21,48,34,21,28,23,16,100,58,29,30.55,30.50,30.46,10,10,10,9,2,,0.00,1,,275
2013-4-22,39,36,33,37,33,25,100,85,60,30.66,30.61,30.56,10,9,2,10,3,,0.00,8,,27
2013-4-23,44,38,33,37,35,32,100,87,66,30.66,30.59,30.43,10,9,0,8,3,,0.00,8,,300
2013-4-24,42,40,37,43,39,36,100,94,87,30.41,30.09,29.75,10,5,2,12,5,,0.00,8,,26
2013-4-25,42,38,35,41,37,34,100,92,81,29.74,29.57,29.51,10,9,3,14,7,,0.00,8,,126
2013-4-26,35,34,33,36,34,32,100,97,93,29.51,29.43,29.37,10,5,1,13,7,18,0.00,8,,335
2013-4-27,39,36,33,36,34,32,100,94,81,29.72,29.61,29.46,10,7,1,15,4,21,0.00,8,,359
2013-4-28,37,34,28,34,23,7,100,67,37,29.96,29.70,29.54,10,7,1,17,11,26,0.00,5,,342
2013-4-29,41,32,24,25,12,3,70,43,26,30.26,30.18,29.97,10,10,10,16,8,24,0.00,1,,332
2013-4-30,39,36,33,36,31,25,93,77,61,30.25,30.21,30.16,10,10,5,21,10,26,0.00,7,,134